Terminal Aerodrome Forecast
Issued by NWS Milwaukee/Sullivan, WI

Home | Current Version | Previous Version | Text Only | Print | Product List | Glossary On
Versions: 1 2 3 4 5 6 7 8 9 10 11 12 13 14 15 16 17 18 19 20 21 22 23 24 25 26 27 28 29 30 31 32 33 34 35 36 37 38 39 40 41 42 43 44 45 46 47 48
019
FTUS43 KMKX 270248 AAA
TAFMSN
TAF AMD
KMSN 270248Z 2703/2724 00000KT P6SM BKN250
     FM271000 16004KT 5SM SHRA BR VCTS BKN050CB
     FM271300 17005KT P6SM SHRA VCTS SCT030 OVC050CB
     FM271800 19008G15KT P6SM SHRA VCTS BKN035CB=

USA.gov is the U.S. government's official web portal to all federal, state and local government web resources and services.